Weather History for KCKC - October, 2012

Change the Weather History Date:

Monday, October 29, 2012

  Actual Average Record
Temperature  
Mean Temperature 32 °F -  
Max Temperature 42 °F 39 °F 53 °F (2005)
Min Temperature 21 °F 28 °F 8 °F (2013)
Degree Days  
Heating Degree Days 34    
Moisture  
Dew Point 23 °F    
Average Humidity 75    
Maximum Humidity 93    
Minimum Humidity 42    
Precipitation  
Precipitation 0.00 in - - ()
Sea Level Pressure  
Sea Level Pressure 30.33 in    
Wind  
Wind Speed 2 mph (NE)    
Max Wind Speed 7 mph    
Max Gust Speed -    
Visibility 9 miles    
Events      
Averages and records for this station are not official NWS values.
T = Trace of Precipitation, MM = Missing Value Source: NWS Daily Summary

Daily Weather History Graph

Daily Weather History Graph

Search for Another Location

Airport or City:

Trip Planner

Search our weather history database for the weather conditions in past years. The results will help you decide how hot, cold, wet, or windy it might be!

Date:

Astronomy

Oct. 29, 2012 Rise Set
Actual Time 7:42 AM CDT 5:47 PM CDT
Civil Twilight 7:10 AM CDT 6:19 PM CDT
Nautical Twilight 6:33 AM CDT 6:55 PM CDT
Astronomical Twilight 5:57 AM CDT 7:31 PM CDT
Moon 5:36 PM CDT (10/29) 7:35 AM CDT (10/29)
Length of Visible Light 11h 09m
Length of Day
10h 05m
Full, 100% of the Moon is Illuminated
Oct 29
Full
Oct 29
Full
Nov 6
Last Quarter
Nov 13
New
Nov 20
First Quarter

Hourly Weather History & Observations

Time (CDT) Temp. Windchill Dew Point Humidity Pressure Visibility Wind Dir Wind Speed Gust Speed Precip Events Conditions
12:14 AM 30.2 °F - 24.8 °F 80% 30.32 in 10.0 mi Calm Calm - N/A   Mostly Cloudy
12:34 AM 28.4 °F - 24.8 °F 86% 30.32 in 10.0 mi Calm Calm - N/A   Overcast
12:53 AM 30.2 °F - 24.8 °F 80% 30.32 in 10.0 mi Calm Calm - N/A   Mostly Cloudy
1:13 AM 26.6 °F - 24.8 °F 93% 30.32 in 10.0 mi Calm Calm - N/A   Scattered Clouds
1:33 AM 26.6 °F - 24.8 °F 93% 30.32 in 7.0 mi Calm Calm - N/A   Clear
1:53 AM 26.6 °F 22.6 °F 23.0 °F 86% 30.32 in 7.0 mi North 3.5 mph - N/A   Clear
2:13 AM 26.6 °F 22.6 °F 23.0 °F 86% 30.32 in 7.0 mi North 3.5 mph - N/A   Clear
2:33 AM 24.8 °F 20.5 °F 21.2 °F 86% 30.33 in 7.0 mi North 3.5 mph - N/A   Clear
2:53 AM 24.8 °F 20.5 °F 21.2 °F 86% 30.33 in 7.0 mi North 3.5 mph - N/A   Clear
3:14 AM 24.8 °F - 21.2 °F 86% 30.33 in 7.0 mi Calm Calm - N/A   Clear
3:33 AM 23.0 °F 18.4 °F 19.4 °F 86% 30.32 in 7.0 mi North 3.5 mph - N/A   Clear
3:54 AM 24.8 °F 20.5 °F 19.4 °F 80% 30.32 in 7.0 mi North 3.5 mph - N/A   Clear
4:13 AM 21.2 °F 16.4 °F 19.4 °F 93% 30.33 in 7.0 mi NNW 3.5 mph - N/A   Clear
4:33 AM 23.0 °F 18.4 °F 19.4 °F 86% 30.33 in 10.0 mi NNE 3.5 mph - N/A   Scattered Clouds
4:53 AM 24.8 °F - 21.2 °F 86% 30.33 in 7.0 mi Calm Calm - N/A   Scattered Clouds
5:13 AM 24.8 °F 19.1 °F 21.2 °F 86% 30.33 in 7.0 mi NNE 4.6 mph - N/A   Clear
5:53 AM 21.2 °F 14.9 °F 17.6 °F 86% 30.33 in 10.0 mi NNE 4.6 mph - N/A   Mostly Cloudy
6:13 AM 21.2 °F 14.9 °F 19.4 °F 93% 30.33 in 7.0 mi NE 4.6 mph - N/A   Mostly Cloudy
6:34 AM 24.8 °F 20.5 °F 19.4 °F 80% 30.33 in 7.0 mi NE 3.5 mph - N/A   Mostly Cloudy
6:53 AM 24.8 °F 20.5 °F 21.2 °F 86% 30.33 in 10.0 mi NNE 3.5 mph - N/A   Scattered Clouds
7:14 AM 24.8 °F 20.5 °F 21.2 °F 86% 30.34 in 10.0 mi NNE 3.5 mph - N/A   Clear
7:33 AM 24.8 °F 20.5 °F 19.4 °F 80% 30.35 in 7.0 mi North 3.5 mph - N/A   Scattered Clouds
7:53 AM 24.8 °F 20.5 °F 19.4 °F 80% 30.35 in 7.0 mi North 3.5 mph - N/A   Overcast
8:14 AM 24.8 °F 17.9 °F 21.2 °F 86% 30.35 in 10.0 mi NNE 5.8 mph - N/A   Overcast
8:34 AM 26.6 °F 21.2 °F 23.0 °F 86% 30.35 in 10.0 mi ENE 4.6 mph - N/A   Overcast
8:54 AM 28.4 °F 22.2 °F 24.8 °F 86% 30.35 in 10.0 mi NE 5.8 mph - N/A   Overcast
9:13 AM 30.2 °F - 26.6 °F 86% 30.35 in 10.0 mi Calm Calm - N/A   Scattered Clouds
9:33 AM 33.8 °F 30.8 °F 28.4 °F 81% 30.35 in 10.0 mi ENE 3.5 mph - N/A   Clear
9:54 AM 33.8 °F 29.6 °F 28.4 °F 81% 30.35 in 10.0 mi East 4.6 mph - N/A   Scattered Clouds
10:14 AM 33.8 °F 29.6 °F 28.4 °F 81% 30.35 in 10.0 mi East 4.6 mph - N/A   Mostly Cloudy
10:34 AM 35.6 °F - 28.4 °F 75% 30.35 in 10.0 mi Calm Calm - N/A   Clear
10:53 AM 35.6 °F 31.7 °F 28.4 °F 75% 30.35 in 10.0 mi East 4.6 mph - N/A   Scattered Clouds
11:13 AM 37.4 °F - 26.6 °F 65% 30.35 in 10.0 mi Calm Calm - N/A   Scattered Clouds
11:33 AM 37.4 °F 34.9 °F 24.8 °F 60% 30.35 in 10.0 mi SE 3.5 mph - N/A   Scattered Clouds
11:54 AM 37.4 °F 32.1 °F 26.6 °F 65% 30.35 in 10.0 mi East 6.9 mph - N/A   Scattered Clouds
12:14 PM 39.2 °F 34.2 °F 24.8 °F 56% 30.34 in 10.0 mi SE 6.9 mph - N/A   Mostly Cloudy
12:34 PM 39.2 °F 35.9 °F 23.0 °F 52% 30.34 in 10.0 mi SE 4.6 mph - N/A   Scattered Clouds
1:13 PM 37.4 °F 33.8 °F 21.2 °F 52% 30.33 in 10.0 mi SSE 4.6 mph - N/A   Scattered Clouds
1:33 PM 39.2 °F 35.0 °F 23.0 °F 52% 30.34 in 10.0 mi East 5.8 mph - N/A   Scattered Clouds
1:54 PM 39.2 °F 37.0 °F 23.0 °F 52% 30.33 in 10.0 mi East 3.5 mph - N/A   Scattered Clouds
2:13 PM 42.8 °F 39.3 °F 21.2 °F 42% 30.33 in 10.0 mi SE 5.8 mph - N/A   Scattered Clouds
2:33 PM 41.0 °F 37.1 °F 21.2 °F 45% 30.33 in 10.0 mi SSE 5.8 mph - N/A   Mostly Cloudy
2:54 PM 39.2 °F - 21.2 °F 49% 30.33 in 10.0 mi Calm Calm - N/A   Mostly Cloudy
3:13 PM 39.2 °F - 21.2 °F 49% 30.33 in 10.0 mi Calm Calm - N/A   Mostly Cloudy
3:33 PM 37.4 °F 34.9 °F 21.2 °F 52% 30.33 in 10.0 mi ESE 3.5 mph - N/A   Mostly Cloudy
3:54 PM 37.4 °F 34.9 °F 21.2 °F 52% 30.33 in 10.0 mi SE 3.5 mph - N/A   Mostly Cloudy
4:13 PM 37.4 °F 33.8 °F 19.4 °F 48% 30.33 in 10.0 mi SE 4.6 mph - N/A   Overcast
4:33 PM 35.6 °F - 21.2 °F 56% 30.33 in 10.0 mi Calm Calm - N/A   Overcast
4:54 PM 35.6 °F - 23.0 °F 60% 30.33 in 10.0 mi Calm Calm - N/A   Overcast
5:13 PM 35.6 °F - 21.2 °F 56% 30.33 in 10.0 mi Calm Calm - N/A   Overcast
5:33 PM 35.6 °F 32.8 °F 24.8 °F 65% 30.33 in 10.0 mi East 3.5 mph - N/A   Overcast
5:54 PM 33.8 °F - 24.8 °F 70% 30.33 in 10.0 mi Calm Calm - N/A   Overcast
6:14 PM 33.8 °F - 24.8 °F 70% 30.33 in 10.0 mi Calm Calm - N/A   Overcast
6:33 PM 33.8 °F - 23.0 °F 65% 30.33 in 10.0 mi Calm Calm - N/A   Overcast
6:53 PM 30.2 °F 26.7 °F 23.0 °F 75% 30.33 in 10.0 mi NE 3.5 mph - N/A   Scattered Clouds
7:14 PM 30.2 °F - 23.0 °F 75% 30.33 in 10.0 mi Calm Calm - N/A   Clear
7:33 PM 30.2 °F - 23.0 °F 75% 30.33 in 10.0 mi Calm Calm - N/A   Clear
7:53 PM 28.4 °F - 23.0 °F 80% 30.33 in 10.0 mi Calm Calm - N/A   Clear
8:13 PM 26.6 °F 22.6 °F 21.2 °F 80% 30.33 in 10.0 mi North 3.5 mph - N/A   Clear
8:33 PM 28.4 °F 24.6 °F 23.0 °F 80% 30.33 in 10.0 mi North 3.5 mph - N/A   Clear
8:54 PM 24.8 °F 19.1 °F 21.2 °F 86% 30.32 in 10.0 mi North 4.6 mph - N/A   Clear
9:13 PM 24.8 °F 19.1 °F 21.2 °F 86% 30.32 in 10.0 mi North 4.6 mph - N/A   Clear
9:33 PM 24.8 °F 19.1 °F 21.2 °F 86% 30.31 in 10.0 mi North 4.6 mph - N/A   Clear
9:54 PM 24.8 °F 20.5 °F 21.2 °F 86% 30.31 in 10.0 mi North 3.5 mph - N/A   Clear
10:14 PM 24.8 °F 20.5 °F 21.2 °F 86% 30.31 in 10.0 mi North 3.5 mph - N/A   Clear
10:34 PM 24.8 °F 19.1 °F 21.2 °F 86% 30.30 in 10.0 mi North 4.6 mph - N/A   Clear
10:54 PM 24.8 °F 19.1 °F 19.4 °F 80% 30.30 in 10.0 mi North 4.6 mph - N/A   Clear
11:13 PM 24.8 °F 19.1 °F 21.2 °F 86% 30.30 in 10.0 mi North 4.6 mph - N/A   Clear
11:33 PM 24.8 °F 17.9 °F 21.2 °F 86% 30.30 in 10.0 mi North 5.8 mph - N/A   Clear
11:53 PM 23.0 °F 15.8 °F 19.4 °F 86% 30.29 in 10.0 mi North 5.8 mph - N/A   Clear